Pontiac, MI

7:46 PM EST on November 11, 2019 (GMT -0500)
Oakland County International

Weather History for KPTK - June, 2019

Change the Weather History Date:

Tuesday, June 11, 2019

  Actual Average Record
Temperature  
Mean Temperature 62 °F -  
Max Temperature 75 °F 74 °F 91 °F (2016)
Min Temperature 48 °F 54 °F 42 °F (2006)
Degree Days  
Heating Degree Days 4    
Growing Degree Days 12 (Base 50)    
Moisture  
Dew Point 46 °F    
Average Humidity 58    
Maximum Humidity 93    
Minimum Humidity 32    
Precipitation  
Precipitation 0.00 in - - ()
Sea Level Pressure  
Sea Level Pressure 30.13 in    
Wind  
Wind Speed 6 mph (West)    
Max Wind Speed 14 mph    
Max Gust Speed 18 mph    
Visibility 10 miles    
Events      
Averages and records for this station are not official NWS values.
T = Trace of Precipitation, MM = Missing Value Source: NWS Daily Summary

Daily Weather History Graph

Daily Weather History Graph

Search for Another Location

Airport or City:

Astronomy

Jun. 11, 2019 Rise Set
Actual Time 5:55 AM EDT 9:11 PM EDT
Civil Twilight 5:20 AM EDT 9:46 PM EDT
Nautical Twilight 4:35 AM EDT 10:31 PM EDT
Astronomical Twilight 3:40 AM EDT 11:26 PM EDT
Moon 3:00 PM EDT (6/11) 2:48 AM EDT (6/11)
Length of Visible Light 16h 25m
Length of Day
15h 16m
Waxing Gibbous, 66% of the Moon is Illuminated
Jun 11
Waxing Gibbous
Jun 17
Full
Jun 25
Last Quarter
Jul 2
New
Jul 9
First Quarter

Hourly Weather History & Observations

Time (EDT) Temp. Dew Point Humidity Pressure Visibility Wind Dir Wind Speed Gust Speed Precip Events Conditions
12:53 AM 53.1 °F 46.0 °F 77% 30.09 in 10.0 mi WNW 4.6 mph - N/A   Clear
1:53 AM 52.0 °F 45.0 °F 77% 30.10 in 10.0 mi West 5.8 mph - N/A   Clear
2:53 AM 52.0 °F 46.0 °F 80% 30.11 in 10.0 mi West 3.5 mph - N/A   Clear
3:53 AM 51.1 °F 46.9 °F 86% 30.11 in 10.0 mi Calm Calm - N/A   Clear
4:53 AM 48.0 °F 46.0 °F 93% 30.12 in 10.0 mi West 3.5 mph - N/A   Clear
5:53 AM 50.0 °F 46.0 °F 86% 30.14 in 10.0 mi Calm Calm - N/A   Partly Cloudy
6:53 AM 52.0 °F 46.9 °F 83% 30.16 in 10.0 mi Calm Calm - N/A   Partly Cloudy
7:53 AM 55.0 °F 48.9 °F 80% 30.17 in 10.0 mi West 5.8 mph - N/A   Clear
8:53 AM 59.0 °F 48.0 °F 67% 30.18 in 10.0 mi West 9.2 mph - N/A   Partly Cloudy
9:53 AM 63.0 °F 48.0 °F 58% 30.18 in 10.0 mi WNW 9.2 mph - N/A   Partly Cloudy
10:53 AM 66.0 °F 46.9 °F 50% 30.18 in 10.0 mi WNW 9.2 mph - N/A   Partly Cloudy
11:53 AM 69.1 °F 48.0 °F 47% 30.17 in 10.0 mi West 8.1 mph - N/A   Partly Cloudy
12:53 PM 70.0 °F 46.9 °F 44% 30.17 in 10.0 mi West 13.8 mph 17.3 mph N/A   Partly Cloudy
1:53 PM 72.0 °F 45.0 °F 38% 30.15 in 10.0 mi West 12.7 mph 18.4 mph N/A   Partly Cloudy
2:53 PM 72.0 °F 46.0 °F 40% 30.14 in 10.0 mi West 6.9 mph 17.3 mph N/A   Scattered Clouds
3:53 PM 72.0 °F 45.0 °F 38% 30.14 in 10.0 mi West 13.8 mph - N/A   Partly Cloudy
4:53 PM 73.0 °F 45.0 °F 37% 30.12 in 10.0 mi WNW 12.7 mph - N/A   Scattered Clouds
5:53 PM 75.0 °F 43.0 °F 32% 30.11 in 10.0 mi West 10.4 mph - N/A   Partly Cloudy
6:53 PM 73.9 °F 43.0 °F 33% 30.10 in 10.0 mi WNW 4.6 mph - N/A   Partly Cloudy
7:53 PM 73.0 °F 42.1 °F 33% 30.09 in 10.0 mi WNW 3.5 mph - N/A   Partly Cloudy
8:53 PM 71.1 °F 45.0 °F 39% 30.09 in 10.0 mi Calm Calm - N/A   Partly Cloudy
9:53 PM 64.9 °F 48.9 °F 56% 30.09 in 10.0 mi Calm Calm - N/A   Scattered Clouds
10:53 PM 63.0 °F 50.0 °F 63% 30.10 in 10.0 mi SE 5.8 mph - N/A   Scattered Clouds
11:53 PM 62.1 °F 48.9 °F 62% 30.09 in 10.0 mi SSE 5.8 mph - N/A   Scattered Clouds